Weather History for Alamogordo, NM

Change the Weather History Date:

Saturday, January 25, 2014

  Actual Average Record
Temperature  
Mean Temperature 42 °F -  
Max Temperature 59 °F 59 °F 76 °F (1952)
Min Temperature 24 °F 30 °F 11 °F (1964)
Degree Days  
Heating Degree Days 24    
Moisture  
Dew Point 11 °F    
Average Humidity 36    
Maximum Humidity 64    
Minimum Humidity 11    
Precipitation  
Precipitation 0.00 in - - ()
Sea Level Pressure  
Sea Level Pressure 30.24 in    
Wind  
Wind Speed 5 mph (East)    
Max Wind Speed 12 mph    
Max Gust Speed -    
Visibility 10 miles    
Events      
Averages and records for this station are not official NWS values.
T = Trace of Precipitation, MM = Missing Value Source: NWS Daily Summary

Daily Weather History Graph

Daily Weather History Graph

Search for Another Location

Airport:

Trip Planner

Search our weather history database for the weather conditions in past years. The results will help you decide how hot, cold, wet, or windy it might be!

Date:

Astronomy

Jan. 25, 2014 Rise Set
Actual Time 7:03 AM MST 5:29 PM MST
Civil Twilight 6:36 AM MST 5:56 PM MST
Nautical Twilight 6:06 AM MST 6:26 PM MST
Astronomical Twilight 5:37 AM MST 6:55 PM MST
Moon 1:39 AM MST (1/25) 12:32 PM MST (1/25)
Length of Visible Light 11h 19m
Length of Day
10h 26m
Waning Crescent, 33% of the Moon is Illuminated
Jan 25
Waning Crescent
Jan 30
New
Feb 6
First Quarter
Feb 14
Full
Feb 22
Last Quarter

Hourly Weather History & Observations

Time (MST) Temp. Windchill Dew Point Humidity Pressure Visibility Wind Dir Wind Speed Gust Speed Precip Events Conditions
12:15 AM 30.2 °F 25.4 °F 14.0 °F 51% 30.37 in 10.0 mi NNE 4.6 mph - N/A   Clear
12:35 AM 30.2 °F 26.7 °F 14.0 °F 51% 30.36 in 10.0 mi NNE 3.5 mph - N/A   Clear
12:55 AM 28.4 °F 23.3 °F 14.0 °F 55% 30.36 in 10.0 mi NNW 4.6 mph - N/A   Clear
1:15 AM 32.0 °F - 14.0 °F 48% 30.36 in 10.0 mi Calm Calm - N/A   Clear
1:35 AM 26.6 °F 19.1 °F 14.0 °F 59% 30.36 in 10.0 mi SSE 6.9 mph - N/A   Clear
1:55 AM 28.4 °F 23.3 °F 14.0 °F 55% 30.36 in 10.0 mi South 4.6 mph - N/A   Clear
2:15 AM 28.4 °F - 14.0 °F 55% 30.36 in 10.0 mi Calm Calm - N/A   Clear
2:35 AM 30.2 °F - 14.0 °F 51% 30.36 in 10.0 mi Calm Calm - N/A   Partly Cloudy
2:55 AM 32.0 °F 28.7 °F 14.0 °F 48% 30.34 in 10.0 mi NE 3.5 mph - N/A   Scattered Clouds
3:15 AM 32.0 °F 27.5 °F 14.0 °F 48% 30.33 in 10.0 mi North 4.6 mph - N/A   Partly Cloudy
3:35 AM 32.0 °F 26.4 °F 14.0 °F 48% 30.32 in 10.0 mi NNW 5.8 mph - N/A   Clear
3:55 AM 30.2 °F 26.7 °F 14.0 °F 51% 30.32 in 10.0 mi South 3.5 mph - N/A   Clear
4:15 AM 28.4 °F - 15.8 °F 59% 30.31 in 10.0 mi Calm Calm - N/A   Partly Cloudy
4:35 AM 26.6 °F 20.0 °F 15.8 °F 64% 30.31 in 10.0 mi SE 5.8 mph - N/A   Partly Cloudy
4:55 AM 26.6 °F 21.2 °F 15.8 °F 64% 30.31 in 10.0 mi SSE 4.6 mph - N/A   Clear
5:15 AM 24.8 °F 17.9 °F 14.0 °F 64% 30.30 in 10.0 mi SSE 5.8 mph - N/A   Clear
5:35 AM 24.8 °F 19.1 °F 14.0 °F 64% 30.30 in 10.0 mi SE 4.6 mph - N/A   Clear
5:55 AM 24.8 °F 19.1 °F 14.0 °F 64% 30.30 in 10.0 mi ESE 4.6 mph - N/A   Clear
6:15 AM 26.6 °F 22.6 °F 14.0 °F 59% 30.29 in 10.0 mi ESE 3.5 mph - N/A   Clear
6:35 AM 26.6 °F 22.6 °F 14.0 °F 59% 30.29 in 10.0 mi East 3.5 mph - N/A   Clear
6:55 AM 28.4 °F - 14.0 °F 55% 30.28 in 10.0 mi Calm Calm - N/A   Clear
7:15 AM 30.2 °F 26.7 °F 14.0 °F 51% 30.28 in 10.0 mi West 3.5 mph - N/A   Clear
7:35 AM 30.2 °F 24.3 °F 17.6 °F 60% 30.29 in 10.0 mi SE 5.8 mph - N/A   Clear
7:55 AM 32.0 °F 24.8 °F 15.8 °F 51% 30.30 in 10.0 mi SSE 8.1 mph - N/A   Clear
8:15 AM 32.0 °F 24.2 °F 14.0 °F 48% 30.31 in 10.0 mi SSE 9.2 mph - N/A   Clear
8:35 AM 32.0 °F 24.8 °F 14.0 °F 48% 30.32 in 10.0 mi South 8.1 mph - N/A   Clear
8:55 AM 32.0 °F 24.8 °F 14.0 °F 48% 30.32 in 10.0 mi South 8.1 mph - N/A   Clear
9:15 AM 33.8 °F 26.4 °F 14.0 °F 44% 30.32 in 10.0 mi South 9.2 mph - N/A   Clear
9:35 AM 35.6 °F 29.2 °F 15.8 °F 44% 30.33 in 10.0 mi South 8.1 mph - N/A   Partly Cloudy
9:55 AM 35.6 °F 31.7 °F 15.8 °F 44% 30.32 in 10.0 mi SSE 4.6 mph - N/A   Partly Cloudy
10:15 AM 37.4 °F 33.8 °F 15.8 °F 41% 30.32 in 10.0 mi SSE 4.6 mph - N/A   Partly Cloudy
10:35 AM 39.2 °F 35.0 °F 15.8 °F 39% 30.32 in 10.0 mi South 5.8 mph - N/A   Clear
10:55 AM 41.0 °F 35.8 °F 15.8 °F 36% 30.32 in 10.0 mi South 8.1 mph - N/A   Partly Cloudy
11:15 AM 41.0 °F 36.4 °F 14.0 °F 33% 30.31 in 10.0 mi South 6.9 mph - N/A   Partly Cloudy
11:35 AM 44.6 °F 41.4 °F 14.0 °F 29% 30.30 in 10.0 mi South 5.8 mph - N/A   Scattered Clouds
11:55 AM 46.4 °F 45.2 °F 14.0 °F 27% 30.28 in 10.0 mi SSW 3.5 mph - N/A   Scattered Clouds
12:15 PM 48.2 °F - 12.2 °F 24% 30.26 in 10.0 mi Calm Calm - N/A   Clear
12:35 PM 50.0 °F - 10.4 °F 20% 30.24 in 10.0 mi North 4.6 mph - N/A   Clear
12:55 PM 53.6 °F - 8.6 °F 16% 30.22 in 10.0 mi NNW 6.9 mph - N/A   Partly Cloudy
1:15 PM 55.4 °F - 8.6 °F 15% 30.20 in 10.0 mi NW 8.1 mph - N/A   Partly Cloudy
1:35 PM 57.2 °F - 6.8 °F 13% 30.18 in 10.0 mi NW 8.1 mph - N/A   Scattered Clouds
1:55 PM 57.2 °F - 6.8 °F 13% 30.18 in 10.0 mi WNW 11.5 mph - N/A   Mostly Cloudy
2:15 PM 57.2 °F - 5.0 °F 12% 30.17 in 10.0 mi NW 9.2 mph - N/A   Mostly Cloudy
2:35 PM 57.2 °F - 5.0 °F 12% 30.17 in 10.0 mi WNW 10.4 mph - N/A   Scattered Clouds
2:55 PM 59.0 °F - 8.6 °F 14% 30.16 in 10.0 mi NW 9.2 mph - N/A   Mostly Cloudy
3:15 PM 57.2 °F - 6.8 °F 13% 30.16 in 10.0 mi NNW 11.5 mph - N/A   Overcast
3:35 PM 59.0 °F - 5.0 °F 12% 30.16 in 10.0 mi NNW 9.2 mph - N/A   Overcast
3:55 PM 59.0 °F - 6.8 °F 13% 30.16 in 10.0 mi NNE 6.9 mph - N/A   Mostly Cloudy
4:15 PM 57.2 °F - 5.0 °F 12% 30.15 in 10.0 mi North 5.8 mph - N/A   Mostly Cloudy
4:35 PM 57.2 °F - 5.0 °F 12% 30.15 in 10.0 mi NNE 5.8 mph - N/A   Scattered Clouds
4:55 PM 57.2 °F - 3.2 °F 11% 30.14 in 10.0 mi NW 5.8 mph - N/A   Clear
5:15 PM 55.4 °F - 1.4 °F 11% 30.14 in 10.0 mi NNW 4.6 mph - N/A   Clear
5:35 PM 53.6 °F - 1.4 °F 12% 30.14 in 10.0 mi NW 5.8 mph - N/A   Clear
5:55 PM 50.0 °F - 5.0 °F 16% 30.14 in 10.0 mi NW 6.9 mph - N/A   Clear
6:15 PM 48.2 °F - 8.6 °F 20% 30.14 in 10.0 mi NW 5.8 mph - N/A   Clear
6:35 PM 46.4 °F 43.5 °F 6.8 °F 20% 30.14 in 10.0 mi NNE 5.8 mph - N/A   Clear
6:55 PM 44.6 °F 41.4 °F 6.8 °F 21% 30.14 in 10.0 mi NNE 5.8 mph - N/A   Clear
7:15 PM 46.4 °F 43.5 °F 6.8 °F 20% 30.14 in 10.0 mi North 5.8 mph - N/A   Clear
8:15 PM 39.2 °F 37.0 °F 6.8 °F 26% 30.14 in 10.0 mi ESE 3.5 mph - N/A   Clear
8:35 PM 37.4 °F 34.9 °F 6.8 °F 28% 30.13 in 10.0 mi SE 3.5 mph - N/A   Clear
8:55 PM 37.4 °F 33.8 °F 6.8 °F 28% 30.13 in 10.0 mi ESE 4.6 mph - N/A   Clear
9:15 PM 39.2 °F - 6.8 °F 26% 30.12 in 10.0 mi Calm Calm - N/A   Clear
9:35 PM 37.4 °F 34.9 °F 6.8 °F 28% 30.12 in 10.0 mi NE 3.5 mph - N/A   Clear
9:55 PM 39.2 °F - 8.6 °F 28% 30.12 in 10.0 mi Calm Calm - N/A   Clear
10:15 PM 37.4 °F - 8.6 °F 30% 30.11 in 10.0 mi Calm Calm - N/A   Clear
10:35 PM 35.6 °F - 6.8 °F 30% 30.11 in 10.0 mi Calm Calm - N/A   Clear
10:55 PM 35.6 °F - 8.6 °F 33% 30.11 in 10.0 mi Calm Calm - N/A   Clear
11:15 PM 35.6 °F 32.8 °F 8.6 °F 33% 30.10 in 10.0 mi East 3.5 mph - N/A   Clear
11:35 PM 35.6 °F - 8.6 °F 33% 30.11 in 10.0 mi Calm Calm - N/A   Clear
11:55 PM 32.0 °F 25.6 °F 10.4 °F 41% 30.10 in 10.0 mi SE 6.9 mph - N/A   Clear